Time,TemperatureF,DewpointF,PressureIn,WindDirection,WindDirectionDegrees,WindSpeedMPH,WindSpeedGustMPH,Humidity,HourlyPrecipIn,Conditions,Clouds,dailyrainin,SoftwareType,DateUTC
2013-02-19 00:09:00,42.9,37.0,29.43,SE,145,15.0,15.0,80,0.04,,,0.00,weatherlink.com 1.10,2013-02-19 05:09:00,
2013-02-19 00:24:00,43.0,37.0,29.42,SSE,166,5.0,14.0,80,0.04,,,0.02,weatherlink.com 1.10,2013-02-19 05:24:00,
2013-02-19 00:39:00,43.3,38.0,29.41,South,181,5.0,14.0,81,0.05,,,0.04,weatherlink.com 1.10,2013-02-19 05:39:00,
2013-02-19 00:54:00,43.2,37.0,29.40,East,96,2.0,14.0,80,0.06,,,0.05,weatherlink.com 1.10,2013-02-19 05:54:00,
2013-02-19 01:09:00,43.1,37.0,29.39,South,169,4.0,16.0,80,0.06,,,0.06,weatherlink.com 1.10,2013-02-19 06:09:00,
2013-02-19 01:24:00,43.0,37.0,29.38,South,188,2.0,12.0,79,0.04,,,0.06,weatherlink.com 1.10,2013-02-19 06:24:00,
2013-02-19 01:39:00,42.7,37.0,29.39,West,269,5.0,12.0,79,0.03,,,0.07,weatherlink.com 1.10,2013-02-19 06:39:00,
2013-02-19 01:54:00,39.0,34.0,29.41,SW,229,4.0,18.0,81,0.03,,,0.08,weatherlink.com 1.10,2013-02-19 06:54:00,
2013-02-19 02:09:00,37.1,31.0,29.42,WNW,288,7.0,19.0,80,0.02,,,0.08,weatherlink.com 1.10,2013-02-19 07:09:00,
2013-02-19 02:25:00,36.0,31.0,29.43,West,273,3.0,17.0,81,0.03,,,0.09,weatherlink.com 1.10,2013-02-19 07:25:00,
2013-02-19 02:40:00,35.2,30.0,29.44,West,266,10.0,16.0,81,0.01,,,0.09,weatherlink.com 1.10,2013-02-19 07:40:00,
2013-02-19 02:54:00,34.8,29.0,29.44,West,271,7.0,18.0,80,0.02,,,0.10,weatherlink.com 1.10,2013-02-19 07:54:00,
2013-02-19 03:10:00,35.0,30.0,29.45,WSW,252,11.0,20.0,82,0.02,,,0.10,weatherlink.com 1.10,2013-02-19 08:10:00,
2013-02-19 03:24:00,34.9,30.0,29.45,West,269,8.0,17.0,82,0.01,,,0.10,weatherlink.com 1.10,2013-02-19 08:24:00,
2013-02-19 03:40:00,34.9,30.0,29.46,NW,321,6.0,23.0,83,0.01,,,0.10,weatherlink.com 1.10,2013-02-19 08:40:00,
2013-02-19 03:54:00,34.7,30.0,29.47,SW,214,10.0,13.0,83,0.00,,,0.10,weatherlink.com 1.10,2013-02-19 08:54:00,
2013-02-19 04:10:00,34.4,30.0,29.48,NW,315,9.0,23.0,84,0.00,,,0.10,weatherlink.com 1.10,2013-02-19 09:10:00,
2013-02-19 04:25:00,33.7,29.0,29.49,West,262,7.0,20.0,84,0.00,,,0.10,weatherlink.com 1.10,2013-02-19 09:25:00,
2013-02-19 04:40:00,33.5,29.0,29.50,West,259,2.0,19.0,84,0.00,,,0.10,weatherlink.com 1.10,2013-02-19 09:40:00,
2013-02-19 04:55:00,32.9,29.0,29.51,West,278,10.0,17.0,84,0.00,,,0.10,weatherlink.com 1.10,2013-02-19 09:55:00,
2013-02-19 05:10:00,32.4,28.0,29.52,WNW,288,6.0,13.0,84,0.00,,,0.10,weatherlink.com 1.10,2013-02-19 10:10:00,
2013-02-19 05:25:00,31.6,27.0,29.53,West,280,11.0,18.0,84,0.00,,,0.10,weatherlink.com 1.10,2013-02-19 10:25:00,
2013-02-19 05:40:00,30.9,26.0,29.53,SW,233,9.0,20.0,83,0.00,,,0.10,weatherlink.com 1.10,2013-02-19 10:40:00,
2013-02-19 05:55:00,30.1,26.0,29.54,WSW,245,5.0,21.0,84,0.00,,,0.10,weatherlink.com 1.10,2013-02-19 10:55:00,
2013-02-19 06:10:00,29.5,25.0,29.55,West,271,9.0,19.0,84,0.00,,,0.10,weatherlink.com 1.10,2013-02-19 11:10:00,
2013-02-19 06:25:00,28.7,25.0,29.55,West,276,5.0,18.0,84,0.00,,,0.10,weatherlink.com 1.10,2013-02-19 11:25:00,
2013-02-19 06:40:00,28.1,24.0,29.56,WSW,253,10.0,18.0,84,0.00,,,0.10,weatherlink.com 1.10,2013-02-19 11:40:00,
2013-02-19 06:55:00,27.2,23.0,29.56,West,276,3.0,16.0,84,0.00,,,0.10,weatherlink.com 1.10,2013-02-19 11:55:00,
2013-02-19 07:11:00,26.7,23.0,29.57,West,263,5.0,15.0,84,0.00,,,0.10,weatherlink.com 1.10,2013-02-19 12:11:00,
2013-02-19 07:25:00,26.1,22.0,29.58,North,352,5.0,14.0,84,0.00,,,0.10,weatherlink.com 1.10,2013-02-19 12:25:00,
2013-02-19 07:40:00,25.7,22.0,29.59,SW,236,8.0,15.0,85,0.00,,,0.10,weatherlink.com 1.10,2013-02-19 12:40:00,
2013-02-19 07:55:00,25.3,21.0,29.60,WSW,244,3.0,15.0,85,0.00,,,0.10,weatherlink.com 1.10,2013-02-19 12:55:00,
2013-02-19 08:11:00,24.9,21.0,29.61,NNW,341,11.0,15.0,85,0.00,,,0.10,weatherlink.com 1.10,2013-02-19 13:11:00,
2013-02-19 08:26:00,24.7,21.0,29.61,SW,229,4.0,14.0,84,0.00,,,0.10,weatherlink.com 1.10,2013-02-19 13:26:00,
2013-02-19 08:41:00,24.0,20.0,29.62,WSW,252,3.0,16.0,84,0.00,,,0.10,weatherlink.com 1.10,2013-02-19 13:41:00,
2013-02-19 08:56:00,23.5,19.0,29.62,WNW,293,11.0,17.0,83,0.00,,,0.10,weatherlink.com 1.10,2013-02-19 13:56:00,
2013-02-19 09:11:00,23.1,19.0,29.63,WSW,255,5.0,14.0,84,0.00,,,0.10,weatherlink.com 1.10,2013-02-19 14:11:00,
2013-02-19 09:26:00,22.7,19.0,29.64,SW,228,6.0,18.0,85,0.00,,,0.10,weatherlink.com 1.10,2013-02-19 14:26:00,
2013-02-19 09:41:00,22.4,18.0,29.64,WNW,291,9.0,17.0,84,0.00,,,0.10,weatherlink.com 1.10,2013-02-19 14:41:00,
2013-02-19 09:56:00,22.3,18.0,29.64,West,269,4.0,15.0,83,0.00,,,0.10,weatherlink.com 1.10,2013-02-19 14:56:00,
2013-02-19 10:11:00,22.2,18.0,29.65,WSW,244,4.0,13.0,82,0.00,,,0.10,weatherlink.com 1.10,2013-02-19 15:11:00,
2013-02-19 10:26:00,22.2,18.0,29.66,NNW,334,7.0,13.0,83,0.00,,,0.10,weatherlink.com 1.10,2013-02-19 15:26:00,
2013-02-19 10:41:00,22.2,18.0,29.66,WSW,240,8.0,18.0,83,0.00,,,0.10,weatherlink.com 1.10,2013-02-19 15:41:00,
2013-02-19 10:56:00,22.1,18.0,29.67,West,274,5.0,11.0,83,0.00,,,0.10,weatherlink.com 1.10,2013-02-19 15:56:00,
2013-02-19 11:11:00,22.2,18.0,29.67,WSW,252,3.0,14.0,83,0.00,,,0.10,weatherlink.com 1.10,2013-02-19 16:11:00,
2013-02-19 11:26:00,22.3,18.0,29.68,West,274,1.0,13.0,82,0.00,,,0.10,weatherlink.com 1.10,2013-02-19 16:26:00,
2013-02-19 11:41:00,22.9,18.0,29.68,West,269,9.0,14.0,82,0.00,,,0.10,weatherlink.com 1.10,2013-02-19 16:41:00,
2013-02-19 11:56:00,22.9,19.0,29.69,West,276,6.0,17.0,83,0.00,,,0.10,weatherlink.com 1.10,2013-02-19 16:56:00,
2013-02-19 12:11:00,23.0,19.0,29.70,WNW,289,9.0,16.0,83,0.00,,,0.10,weatherlink.com 1.10,2013-02-19 17:11:00,
2013-02-19 12:27:00,23.1,18.0,29.70,West,276,6.0,13.0,82,0.00,,,0.10,weatherlink.com 1.10,2013-02-19 17:27:00,
2013-02-19 12:41:00,22.8,18.0,29.71,WNW,285,7.0,12.0,83,0.00,,,0.10,weatherlink.com 1.10,2013-02-19 17:41:00,
2013-02-19 12:57:00,22.0,18.0,29.71,West,266,7.0,17.0,84,0.00,,,0.10,weatherlink.com 1.10,2013-02-19 17:57:00,
2013-02-19 13:11:00,22.0,18.0,29.72,West,276,8.0,22.0,83,0.00,,,0.10,weatherlink.com 1.10,2013-02-19 18:11:00,
2013-02-19 13:27:00,21.5,17.0,29.73,WNW,288,1.0,22.0,83,0.00,,,0.10,weatherlink.com 1.10,2013-02-19 18:27:00,
2013-02-19 13:42:00,21.2,17.0,29.73,SW,236,12.0,26.0,84,0.00,,,0.10,weatherlink.com 1.10,2013-02-19 18:42:00,
2013-02-19 13:57:00,21.1,17.0,29.74,WSW,250,17.0,20.0,83,0.00,,,0.10,weatherlink.com 1.10,2013-02-19 18:57:00,
2013-02-19 14:12:00,21.3,17.0,29.75,NW,306,4.0,16.0,83,0.00,,,0.10,weatherlink.com 1.10,2013-02-19 19:12:00,
2013-02-19 14:27:00,21.0,17.0,29.75,WNW,290,6.0,13.0,83,0.00,,,0.10,weatherlink.com 1.10,2013-02-19 19:27:00,
2013-02-19 14:42:00,20.7,16.0,29.76,West,278,4.0,15.0,83,0.00,,,0.10,weatherlink.com 1.10,2013-02-19 19:42:00,
2013-02-19 15:12:00,20.6,17.0,29.78,WNW,288,14.0,16.0,85,0.00,,,0.10,weatherlink.com 1.10,2013-02-19 20:12:00,
2013-02-19 15:27:00,19.7,16.0,29.80,WNW,287,9.0,19.0,86,0.00,,,0.10,weatherlink.com 1.10,2013-02-19 20:27:00,
2013-02-19 15:42:00,19.7,16.0,29.80,WNW,288,6.0,19.0,86,0.00,,,0.10,weatherlink.com 1.10,2013-02-19 20:42:00,
2013-02-19 15:57:00,19.2,15.0,29.82,West,259,8.0,20.0,85,0.00,,,0.10,weatherlink.com 1.10,2013-02-19 20:57:00,
2013-02-19 16:12:00,18.8,15.0,29.83,NW,309,7.0,17.0,85,0.00,,,0.10,weatherlink.com 1.10,2013-02-19 21:12:00,
2013-02-19 16:27:00,18.6,15.0,29.84,WNW,298,4.0,15.0,85,0.00,,,0.10,weatherlink.com 1.10,2013-02-19 21:27:00,
2013-02-19 16:43:00,18.3,15.0,29.85,WNW,303,9.0,16.0,85,0.00,,,0.10,weatherlink.com 1.10,2013-02-19 21:43:00,
2013-02-19 16:58:00,18.1,14.0,29.86,West,278,7.0,21.0,84,0.00,,,0.10,weatherlink.com 1.10,2013-02-19 21:58:00,
2013-02-19 17:12:00,17.8,14.0,29.87,West,275,4.0,15.0,84,0.00,,,0.10,weatherlink.com 1.10,2013-02-19 22:12:00,
2013-02-19 17:27:00,17.6,14.0,29.88,WNW,283,5.0,17.0,84,0.00,,,0.10,weatherlink.com 1.10,2013-02-19 22:27:00,
2013-02-19 17:42:00,17.6,14.0,29.89,WNW,287,4.0,10.0,84,0.00,,,0.10,weatherlink.com 1.10,2013-02-19 22:42:00,
2013-02-19 17:57:00,17.3,13.0,29.90,West,269,5.0,13.0,84,0.00,,,0.10,weatherlink.com 1.10,2013-02-19 22:57:00,
2013-02-19 18:13:00,17.0,13.0,29.91,NW,318,3.0,15.0,85,0.00,,,0.10,weatherlink.com 1.10,2013-02-19 23:13:00,
2013-02-19 18:28:00,16.9,13.0,29.92,West,278,5.0,14.0,85,0.00,,,0.10,weatherlink.com 1.10,2013-02-19 23:28:00,
2013-02-19 18:43:00,16.8,13.0,29.93,WNW,300,6.0,10.0,85,0.00,,,0.10,weatherlink.com 1.10,2013-02-19 23:43:00,
2013-02-19 18:58:00,16.8,13.0,29.94,WNW,285,5.0,12.0,85,0.00,,,0.10,weatherlink.com 1.10,2013-02-19 23:58:00,
2013-02-19 19:13:00,16.7,13.0,29.95,WNW,285,7.0,12.0,85,0.00,,,0.10,weatherlink.com 1.10,2013-02-20 00:13:00,
2013-02-19 19:28:00,16.7,13.0,29.95,West,264,6.0,8.0,85,0.00,,,0.10,weatherlink.com 1.10,2013-02-20 00:28:00,
2013-02-19 19:43:00,16.7,13.0,29.96,West,269,3.0,9.0,85,0.00,,,0.10,weatherlink.com 1.10,2013-02-20 00:43:00,
2013-02-19 19:58:00,16.4,13.0,29.97,NW,314,4.0,9.0,85,0.00,,,0.10,weatherlink.com 1.10,2013-02-20 00:58:00,
2013-02-19 20:13:00,16.4,13.0,29.97,NNW,333,5.0,16.0,85,0.00,,,0.10,weatherlink.com 1.10,2013-02-20 01:13:00,
2013-02-19 20:28:00,16.3,13.0,29.98,West,280,7.0,14.0,85,0.00,,,0.10,weatherlink.com 1.10,2013-02-20 01:28:00,
2013-02-19 20:43:00,16.4,13.0,29.98,WNW,301,0.0,10.0,85,0.00,,,0.10,weatherlink.com 1.10,2013-02-20 01:43:00,
2013-02-19 20:58:00,16.3,13.0,29.99,WNW,299,4.0,9.0,85,0.00,,,0.10,weatherlink.com 1.10,2013-02-20 01:58:00,
2013-02-19 21:13:00,16.3,13.0,30.00,West,278,5.0,9.0,85,0.00,,,0.10,weatherlink.com 1.10,2013-02-20 02:13:00,
2013-02-19 21:28:00,16.4,13.0,30.00,West,278,4.0,11.0,85,0.00,,,0.10,weatherlink.com 1.10,2013-02-20 02:28:00,
2013-02-19 21:43:00,16.4,13.0,30.00,WNW,287,3.0,9.0,85,0.00,,,0.10,weatherlink.com 1.10,2013-02-20 02:43:00,
2013-02-19 21:59:00,16.3,13.0,30.01,WNW,300,1.0,10.0,85,0.00,,,0.10,weatherlink.com 1.10,2013-02-20 02:59:00,
2013-02-19 22:14:00,16.2,13.0,30.02,WNW,288,7.0,13.0,85,0.00,,,0.10,weatherlink.com 1.10,2013-02-20 03:14:00,
2013-02-19 22:29:00,16.2,13.0,30.02,NW,321,9.0,15.0,85,0.00,,,0.10,weatherlink.com 1.10,2013-02-20 03:29:00,
2013-02-19 22:43:00,16.2,13.0,30.02,NW,323,6.0,8.0,85,0.00,,,0.10,weatherlink.com 1.10,2013-02-20 03:43:00,
2013-02-19 22:58:00,16.3,13.0,30.02,WNW,301,3.0,11.0,85,0.00,,,0.10,weatherlink.com 1.10,2013-02-20 03:58:00,
2013-02-19 23:13:00,16.4,13.0,30.02,West,263,8.0,9.0,87,0.00,,,0.10,weatherlink.com 1.10,2013-02-20 04:13:00,
2013-02-19 23:29:00,16.6,13.0,30.02,West,259,4.0,10.0,86,0.00,,,0.10,weatherlink.com 1.10,2013-02-20 04:29:00,
2013-02-19 23:43:00,16.6,13.0,30.02,NNW,334,2.0,8.0,86,0.00,,,0.10,weatherlink.com 1.10,2013-02-20 04:43:00,
2013-02-19 23:58:00,16.6,13.0,30.02,WNW,298,6.0,6.0,86,0.00,,,0.10,weatherlink.com 1.10,2013-02-20 04:58:00,